Year,Month,Day,Hour,Minute,Value (Times are PST for windgust in km/hr)
2022,01,01,03,34,4.80
2022,01,01,03,35,6.40
2022,01,01,03,36,6.40
2022,01,01,03,37,4.80
2022,01,01,03,38,6.40
2022,01,01,03,39,3.20
2022,01,01,03,40,6.40
2022,01,01,03,41,6.40
2022,01,01,03,42,8.10
2022,01,01,03,43,4.80
2022,01,01,03,44,4.80
2022,01,01,03,45,4.80
2022,01,01,03,46,3.20
2022,01,01,03,47,3.20
2022,01,01,03,50,1.60
2022,01,01,03,51,3.20
2022,01,01,03,53,1.60
2022,01,01,03,54,4.80
2022,01,01,03,56,6.40
2022,01,01,03,57,4.80
2022,01,01,03,58,9.60
2022,01,01,03,59,6.40
2022,01,01,04,00,6.40
2022,01,01,04,01,6.40
2022,01,01,04,02,6.40
2022,01,01,04,03,3.20
2022,01,01,04,04,11.30
2022,01,01,04,05,11.30
2022,01,01,04,06,9.60
2022,01,01,04,07,16.10
2022,01,01,04,08,16.10
2022,01,01,04,09,6.40
2022,01,01,04,10,9.60
2022,01,01,04,11,14.50
2022,01,01,04,12,4.80
2022,01,01,04,13,14.50
2022,01,01,04,14,14.50
2022,01,01,04,15,9.60
2022,01,01,04,16,11.30
2022,01,01,04,17,4.80
2022,01,01,04,18,16.10
2022,01,01,04,19,9.60
2022,01,01,04,20,8.10
2022,01,01,04,21,9.60
2022,01,01,04,22,6.40
2022,01,01,04,23,11.30
2022,01,01,04,24,8.10
2022,01,01,04,25,6.40
2022,01,01,04,26,8.10
2022,01,01,04,27,6.40
2022,01,01,04,28,8.10
2022,01,01,04,29,4.80
2022,01,01,04,30,4.80
2022,01,01,04,31,12.90
2022,01,01,04,32,6.40
2022,01,01,04,33,4.80
2022,01,01,04,34,11.30
2022,01,01,04,35,8.10
2022,01,01,04,36,8.10
2022,01,01,04,37,12.90
2022,01,01,04,38,12.90
2022,01,01,04,39,6.40
2022,01,01,04,40,4.80
2022,01,01,04,41,4.80
2022,01,01,04,42,3.20
2022,01,01,04,43,4.80
2022,01,01,04,44,11.30
2022,01,01,04,45,9.60
2022,01,01,04,46,6.40
2022,01,01,04,47,12.90
2022,01,01,04,48,11.30
2022,01,01,04,49,4.80
2022,01,01,04,50,3.20
2022,01,01,04,51,6.40
2022,01,01,04,52,4.80
2022,01,01,04,53,11.30
2022,01,01,04,54,12.90
2022,01,01,04,55,12.90
2022,01,01,04,56,11.30
2022,01,01,04,57,9.60
2022,01,01,04,58,8.10
2022,01,01,04,59,4.80
2022,01,01,05,00,4.80
2022,01,01,05,01,11.30
2022,01,01,05,02,14.50
2022,01,01,05,03,12.90
2022,01,01,05,04,9.60
2022,01,01,05,05,11.30
2022,01,01,05,06,9.60
2022,01,01,05,07,8.10
2022,01,01,05,08,9.60
2022,01,01,05,09,6.40
2022,01,01,05,10,14.50
2022,01,01,05,11,9.60
2022,01,01,05,12,14.50
2022,01,01,05,13,12.90
2022,01,01,05,14,16.10
2022,01,01,05,15,12.90
2022,01,01,05,16,17.70
2022,01,01,05,17,14.50
2022,01,01,05,18,16.10
2022,01,01,05,19,12.90
2022,01,01,05,20,9.60
2022,01,01,05,21,12.90
2022,01,01,05,22,11.30
2022,01,01,05,23,12.90
2022,01,01,05,24,8.10
2022,01,01,05,25,6.40
2022,01,01,05,26,9.60
2022,01,01,05,27,14.50
2022,01,01,05,28,12.90
2022,01,01,05,29,9.60
2022,01,01,05,30,9.60
2022,01,01,05,31,9.60
2022,01,01,05,32,16.10
2022,01,01,05,33,12.90
2022,01,01,05,34,12.90
2022,01,01,05,35,11.30
2022,01,01,05,36,16.10
2022,01,01,05,37,17.70
2022,01,01,05,38,9.60
2022,01,01,05,39,8.10
2022,01,01,05,40,11.30
2022,01,01,05,41,6.40
2022,01,01,05,42,11.30
2022,01,01,05,43,8.10
2022,01,01,05,44,6.40
2022,01,01,05,45,8.10
2022,01,01,05,46,4.80
2022,01,01,05,47,12.90
2022,01,01,05,48,8.10
2022,01,01,05,49,9.60
2022,01,01,05,50,6.40
2022,01,01,05,51,11.30
2022,01,01,05,52,9.60
2022,01,01,05,53,6.40
2022,01,01,05,54,9.60
2022,01,01,05,55,11.30
2022,01,01,05,56,9.60
2022,01,01,05,57,11.30
2022,01,01,05,58,12.90
2022,01,01,05,59,8.10
2022,01,01,06,00,9.60
2022,01,01,06,01,8.10
2022,01,01,06,02,4.80
2022,01,01,06,03,3.20
2022,01,01,06,04,8.10
2022,01,01,06,05,11.30
2022,01,01,06,06,3.20
2022,01,01,06,07,4.80
2022,01,01,06,08,11.30
2022,01,01,06,09,11.30
2022,01,01,06,10,9.60
2022,01,01,06,11,9.60
2022,01,01,06,12,12.90
2022,01,01,06,13,14.50
2022,01,01,06,14,6.40
2022,01,01,06,15,11.30
2022,01,01,06,16,11.30
2022,01,01,06,17,11.30
2022,01,01,06,18,8.10
2022,01,01,06,19,9.60
2022,01,01,06,20,4.80
2022,01,01,06,21,11.30
2022,01,01,06,22,4.80
2022,01,01,06,23,6.40
2022,01,01,06,24,11.30
2022,01,01,06,25,8.10
2022,01,01,06,26,4.80
2022,01,01,06,27,6.40
2022,01,01,06,28,6.40
2022,01,01,06,29,14.50
2022,01,01,06,30,8.10
2022,01,01,06,31,12.90
2022,01,01,06,32,8.10
2022,01,01,06,33,9.60
2022,01,01,06,34,6.40
2022,01,01,06,35,6.40
2022,01,01,06,36,6.40
2022,01,01,06,37,8.10
2022,01,01,06,38,14.50
2022,01,01,06,39,12.90
2022,01,01,06,40,6.40
2022,01,01,06,41,12.90
2022,01,01,06,42,8.10
2022,01,01,06,43,8.10
2022,01,01,06,44,8.10
2022,01,01,06,45,8.10
2022,01,01,06,46,8.10
2022,01,01,06,47,8.10
2022,01,01,06,48,11.30
2022,01,01,06,49,8.10
2022,01,01,06,50,8.10
2022,01,01,06,51,12.90
2022,01,01,06,52,8.10
2022,01,01,06,53,9.60
2022,01,01,06,54,9.60
2022,01,01,06,55,17.70
2022,01,01,06,56,12.90
2022,01,01,06,57,14.50
2022,01,01,06,58,6.40
2022,01,01,06,59,14.50
2022,01,01,07,00,9.60
2022,01,01,07,01,6.40
2022,01,01,07,02,9.60
2022,01,01,07,03,14.50
2022,01,01,07,04,12.90
2022,01,01,07,05,8.10
2022,01,01,07,06,6.40
2022,01,01,07,07,11.30
2022,01,01,07,08,6.40
2022,01,01,07,09,8.10
2022,01,01,07,10,9.60
2022,01,01,07,11,9.60
2022,01,01,07,12,11.30
2022,01,01,07,13,12.90
2022,01,01,07,14,6.40
2022,01,01,07,15,11.30
2022,01,01,07,16,11.30
2022,01,01,07,17,11.30
2022,01,01,07,18,12.90
2022,01,01,07,19,14.50
2022,01,01,07,20,16.10
2022,01,01,07,21,11.30
2022,01,01,07,22,17.70
2022,01,01,07,23,14.50
2022,01,01,07,24,24.20
2022,01,01,07,25,16.10
2022,01,01,07,26,9.60
2022,01,01,07,27,19.30
2022,01,01,07,28,12.90
2022,01,01,07,29,12.90
2022,01,01,07,30,17.70
2022,01,01,07,31,17.70
2022,01,01,07,32,12.90
2022,01,01,07,33,12.90
2022,01,01,07,34,11.30
2022,01,01,07,35,6.40
2022,01,01,07,36,14.50
2022,01,01,07,37,17.70
2022,01,01,07,38,17.70
2022,01,01,07,39,17.70
2022,01,01,07,40,14.50
2022,01,01,07,41,14.50
2022,01,01,07,42,14.50
2022,01,01,07,43,17.70
2022,01,01,07,44,17.70
2022,01,01,07,45,8.10
2022,01,01,07,46,27.40
2022,01,01,07,47,20.90
2022,01,01,07,48,16.10
2022,01,01,07,49,11.30
2022,01,01,07,50,11.30
2022,01,01,07,51,3.20
2022,01,01,07,52,8.10
2022,01,01,07,53,20.90
2022,01,01,07,54,12.90
2022,01,01,07,55,16.10
2022,01,01,07,56,8.10
2022,01,01,07,57,6.40
2022,01,01,07,58,12.90
2022,01,01,07,59,11.30
2022,01,01,08,00,3.20
2022,01,01,08,01,11.30
2022,01,01,08,02,12.90
2022,01,01,08,03,12.90
2022,01,01,08,04,14.50
2022,01,01,08,05,12.90
2022,01,01,08,06,14.50
2022,01,01,08,07,20.90
2022,01,01,08,08,17.70
2022,01,01,08,09,16.10
2022,01,01,08,10,19.30
2022,01,01,08,11,19.30
2022,01,01,08,12,9.60
2022,01,01,08,13,22.50
2022,01,01,08,14,19.30
2022,01,01,08,15,16.10
2022,01,01,08,16,11.30
2022,01,01,08,17,12.90
2022,01,01,08,18,12.90
2022,01,01,08,19,16.10
2022,01,01,08,20,12.90
2022,01,01,08,21,12.90
2022,01,01,08,22,17.70
2022,01,01,08,23,16.10
2022,01,01,08,24,17.70
2022,01,01,08,25,12.90
2022,01,01,08,26,14.50
2022,01,01,08,27,17.70
2022,01,01,08,28,11.30
2022,01,01,08,29,12.90
2022,01,01,08,30,11.30
2022,01,01,08,31,19.30
2022,01,01,08,32,4.80
2022,01,01,08,33,14.50
2022,01,01,08,34,9.60
2022,01,01,08,35,12.90
2022,01,01,08,36,19.30
2022,01,01,08,37,17.70
2022,01,01,08,38,14.50
2022,01,01,08,39,12.90
2022,01,01,08,40,25.70
2022,01,01,08,41,20.90
2022,01,01,08,42,12.90
2022,01,01,08,43,11.30
2022,01,01,08,44,6.40
2022,01,01,08,45,6.40
2022,01,01,08,46,8.10
2022,01,01,08,47,6.40
2022,01,01,08,48,11.30
2022,01,01,08,49,16.10
2022,01,01,08,50,14.50
2022,01,01,08,51,25.70
2022,01,01,08,52,12.90
2022,01,01,08,53,20.90
2022,01,01,08,54,12.90
2022,01,01,08,55,17.70
2022,01,01,08,56,14.50
2022,01,01,08,57,17.70
2022,01,01,08,58,9.60
2022,01,01,08,59,12.90
2022,01,01,09,00,12.90
2022,01,01,09,01,19.30
2022,01,01,09,02,11.30
2022,01,01,09,03,8.10
2022,01,01,09,04,25.70
2022,01,01,09,05,14.50
2022,01,01,09,06,14.50
2022,01,01,09,07,20.90
2022,01,01,09,08,16.10
2022,01,01,09,09,11.30
2022,01,01,09,10,16.10
2022,01,01,09,11,27.40
2022,01,01,09,12,20.90
2022,01,01,09,13,14.50
2022,01,01,09,14,40.20
2022,01,01,09,15,24.20
2022,01,01,09,16,14.50
2022,01,01,09,17,6.40
2022,01,01,09,18,12.90
2022,01,01,09,19,27.40
2022,01,01,09,20,20.90
2022,01,01,09,21,24.20
2022,01,01,09,22,22.50
2022,01,01,09,23,19.30
2022,01,01,09,24,14.50
2022,01,01,09,25,19.30
2022,01,01,09,26,9.60
2022,01,01,09,27,24.20
2022,01,01,09,28,14.50
2022,01,01,09,29,17.70
2022,01,01,09,30,19.30
2022,01,01,09,31,25.70
2022,01,01,09,32,29.00
2022,01,01,09,33,16.10
2022,01,01,09,34,22.50
2022,01,01,09,35,20.90
2022,01,01,09,36,14.50
2022,01,01,09,37,29.00
2022,01,01,09,38,22.50
2022,01,01,09,39,17.70
2022,01,01,09,40,17.70
2022,01,01,09,41,20.90
2022,01,01,09,42,24.20
2022,01,01,09,43,19.30
2022,01,01,09,44,32.20
2022,01,01,09,45,20.90
2022,01,01,09,46,19.30
2022,01,01,09,47,20.90
2022,01,01,09,48,19.30
2022,01,01,09,49,19.30
2022,01,01,09,50,19.30
2022,01,01,09,51,20.90
2022,01,01,09,52,16.10
2022,01,01,09,53,19.30
2022,01,01,09,54,29.00
2022,01,01,09,55,20.90
2022,01,01,09,56,24.20
2022,01,01,09,57,20.90
2022,01,01,09,58,14.50
2022,01,01,09,59,14.50
2022,01,01,10,00,20.90
2022,01,01,10,01,29.00
2022,01,01,10,02,19.30
2022,01,01,10,03,14.50
2022,01,01,10,04,17.70
2022,01,01,10,05,12.90
2022,01,01,10,06,19.30
2022,01,01,10,07,25.70
2022,01,01,10,08,22.50
2022,01,01,10,09,24.20
2022,01,01,10,10,25.70
2022,01,01,10,11,16.10
2022,01,01,10,12,19.30
2022,01,01,10,13,19.30
2022,01,01,10,14,19.30
2022,01,01,10,15,16.10
2022,01,01,10,16,27.40
2022,01,01,10,17,22.50
2022,01,01,10,18,20.90
2022,01,01,10,19,22.50
2022,01,01,10,20,22.50
2022,01,01,10,21,25.70
2022,01,01,10,22,20.90
2022,01,01,10,23,17.70
2022,01,01,10,24,22.50
2022,01,01,10,25,27.40
2022,01,01,10,26,27.40
2022,01,01,10,27,27.40
2022,01,01,10,28,25.70
2022,01,01,10,29,20.90
2022,01,01,10,30,20.90
2022,01,01,10,31,25.70
2022,01,01,10,32,25.70
2022,01,01,10,33,20.90
2022,01,01,10,34,12.90
2022,01,01,10,35,16.10
2022,01,01,10,36,12.90
2022,01,01,10,37,17.70
2022,01,01,10,38,16.10
2022,01,01,10,39,16.10
2022,01,01,10,40,17.70
2022,01,01,10,41,29.00
2022,01,01,10,42,20.90
2022,01,01,10,43,11.30
2022,01,01,10,44,12.90
2022,01,01,10,45,20.90
2022,01,01,10,46,19.30
2022,01,01,10,47,16.10
2022,01,01,10,48,14.50
2022,01,01,10,49,27.40
2022,01,01,10,50,19.30
2022,01,01,10,51,22.50
2022,01,01,10,52,30.60
2022,01,01,10,53,22.50
2022,01,01,10,54,14.50
2022,01,01,10,55,14.50
2022,01,01,10,56,19.30
2022,01,01,10,57,22.50
2022,01,01,10,58,20.90
2022,01,01,10,59,22.50
2022,01,01,11,00,25.70
2022,01,01,11,01,12.90
2022,01,01,11,02,20.90
2022,01,01,11,03,19.30
2022,01,01,11,04,17.70
2022,01,01,11,05,14.50
2022,01,01,11,06,27.40
2022,01,01,11,07,25.70
2022,01,01,11,08,22.50
2022,01,01,11,09,29.00
2022,01,01,11,10,32.20
2022,01,01,11,11,17.70
2022,01,01,11,12,16.10
2022,01,01,11,13,12.90
2022,01,01,11,14,14.50
2022,01,01,11,15,12.90
2022,01,01,11,16,19.30
2022,01,01,11,17,19.30
2022,01,01,11,18,24.20
2022,01,01,11,19,22.50
2022,01,01,11,20,20.90
2022,01,01,11,21,25.70
2022,01,01,11,22,25.70
2022,01,01,11,23,17.70
2022,01,01,11,24,22.50
2022,01,01,11,25,22.50
2022,01,01,11,26,22.50
2022,01,01,11,27,12.90
2022,01,01,11,28,22.50
2022,01,01,11,29,20.90
2022,01,01,11,30,37.00
2022,01,01,11,31,29.00
2022,01,01,11,32,17.70
2022,01,01,11,33,25.70
2022,01,01,11,34,22.50
2022,01,01,11,35,29.00
2022,01,01,11,36,30.60
2022,01,01,11,37,29.00
2022,01,01,11,38,17.70
2022,01,01,11,39,27.40
2022,01,01,11,40,19.30
2022,01,01,11,41,22.50
2022,01,01,11,42,17.70
2022,01,01,11,43,17.70
2022,01,01,11,44,25.70
2022,01,01,11,45,30.60
2022,01,01,11,46,20.90
2022,01,01,11,47,17.70
2022,01,01,11,48,25.70
2022,01,01,11,49,33.80
2022,01,01,11,50,27.40
2022,01,01,11,51,17.70
2022,01,01,11,52,17.70
2022,01,01,11,53,27.40
2022,01,01,11,54,19.30
2022,01,01,11,55,11.30
2022,01,01,11,56,20.90
2022,01,01,11,57,35.40
2022,01,01,11,58,19.30
2022,01,01,11,59,20.90
2022,01,01,12,00,22.50
2022,01,01,12,01,29.00
2022,01,01,12,02,19.30
2022,01,01,12,03,35.40
2022,01,01,12,04,22.50
2022,01,01,12,05,19.30
2022,01,01,12,06,29.00
2022,01,01,12,07,22.50
2022,01,01,12,08,14.50
2022,01,01,12,09,24.20
2022,01,01,12,10,22.50
2022,01,01,12,11,20.90
2022,01,01,12,12,17.70
2022,01,01,12,13,27.40
2022,01,01,12,14,29.00
2022,01,01,12,15,25.70
2022,01,01,12,16,20.90
2022,01,01,12,17,22.50
2022,01,01,12,18,27.40
2022,01,01,12,19,22.50
2022,01,01,12,20,38.60
2022,01,01,12,21,29.00
2022,01,01,12,22,19.30
2022,01,01,12,23,22.50
2022,01,01,12,24,29.00
2022,01,01,12,25,19.30
2022,01,01,12,26,33.80
2022,01,01,12,27,17.70
2022,01,01,12,28,25.70
2022,01,01,12,29,33.80
2022,01,01,12,30,27.40
2022,01,01,12,31,37.00
2022,01,01,12,32,27.40
2022,01,01,12,33,22.50
2022,01,01,12,34,14.50
2022,01,01,12,35,27.40
2022,01,01,12,36,22.50
2022,01,01,12,37,19.30
2022,01,01,12,38,30.60
2022,01,01,12,39,24.20
2022,01,01,12,40,19.30
2022,01,01,12,41,17.70
2022,01,01,12,42,17.70
2022,01,01,12,43,17.70
2022,01,01,12,44,17.70
2022,01,01,12,45,24.20
2022,01,01,12,46,22.50
2022,01,01,12,47,41.80
2022,01,01,12,48,20.90
2022,01,01,12,49,24.20
2022,01,01,12,50,14.50
2022,01,01,12,51,14.50
2022,01,01,12,52,16.10
2022,01,01,12,53,30.60
2022,01,01,12,54,27.40
2022,01,01,12,55,16.10
2022,01,01,12,56,24.20
2022,01,01,12,57,25.70
2022,01,01,12,58,19.30
2022,01,01,12,59,20.90
2022,01,01,13,00,20.90
2022,01,01,13,01,16.10
2022,01,01,13,02,16.10
2022,01,01,13,03,25.70
2022,01,01,13,04,19.30
2022,01,01,13,05,38.60
2022,01,01,13,06,32.20
2022,01,01,13,07,17.70
2022,01,01,13,08,14.50
2022,01,01,13,09,16.10
2022,01,01,13,10,24.20
2022,01,01,13,11,22.50
2022,01,01,13,12,17.70
2022,01,01,13,13,19.30
2022,01,01,13,14,32.20
2022,01,01,13,15,25.70
2022,01,01,13,16,19.30
2022,01,01,13,17,30.60
2022,01,01,13,18,16.10
2022,01,01,13,19,19.30
2022,01,01,13,20,17.70
2022,01,01,13,21,30.60
2022,01,01,13,22,29.00
2022,01,01,13,23,27.40
2022,01,01,13,24,25.70
2022,01,01,13,25,22.50
2022,01,01,13,26,33.80
2022,01,01,13,27,17.70
2022,01,01,13,28,30.60
2022,01,01,13,29,27.40
2022,01,01,13,30,22.50
2022,01,01,13,31,24.20
2022,01,01,13,32,27.40
2022,01,01,13,33,29.00
2022,01,01,13,34,29.00
2022,01,01,13,35,14.50
2022,01,01,13,36,30.60
2022,01,01,13,37,27.40
2022,01,01,13,38,32.20
2022,01,01,13,39,20.90
2022,01,01,13,40,20.90
2022,01,01,13,41,20.90
2022,01,01,13,42,17.70
2022,01,01,13,43,17.70
2022,01,01,13,44,19.30
2022,01,01,13,45,40.20
2022,01,01,13,46,20.90
2022,01,01,13,47,27.40
2022,01,01,13,48,30.60
2022,01,01,13,49,32.20
2022,01,01,13,50,19.30
2022,01,01,13,51,37.00
2022,01,01,13,52,24.20
2022,01,01,13,53,29.00
2022,01,01,13,54,19.30
2022,01,01,13,55,14.50
2022,01,01,13,56,37.00
2022,01,01,13,57,17.70
2022,01,01,13,58,32.20
2022,01,01,13,59,24.20
2022,01,01,14,00,24.20
2022,01,01,14,01,22.50
2022,01,01,14,02,20.90
2022,01,01,14,03,20.90
2022,01,01,14,04,17.70
2022,01,01,14,05,20.90
2022,01,01,14,06,22.50
2022,01,01,14,07,32.20
2022,01,01,14,08,35.40
2022,01,01,14,09,29.00
2022,01,01,14,10,17.70
2022,01,01,14,11,17.70
2022,01,01,14,12,20.90
2022,01,01,14,13,32.20
2022,01,01,14,14,22.50
2022,01,01,14,15,16.10
2022,01,01,14,16,20.90
2022,01,01,14,17,22.50
2022,01,01,14,18,19.30
2022,01,01,14,19,24.20
2022,01,01,14,20,33.80
2022,01,01,14,21,17.70
2022,01,01,14,22,33.80
2022,01,01,14,23,24.20
2022,01,01,14,24,32.20
2022,01,01,14,25,24.20
2022,01,01,14,26,19.30
2022,01,01,14,27,25.70
2022,01,01,14,28,25.70
2022,01,01,14,29,25.70
2022,01,01,14,30,17.70
2022,01,01,14,31,29.00
2022,01,01,14,32,37.00
2022,01,01,14,33,25.70
2022,01,01,14,34,25.70
2022,01,01,14,35,27.40
2022,01,01,14,36,29.00
2022,01,01,14,37,24.20
2022,01,01,14,38,17.70
2022,01,01,14,39,33.80
2022,01,01,14,40,40.20
2022,01,01,14,41,24.20
2022,01,01,14,42,32.20
2022,01,01,14,43,37.00
2022,01,01,14,44,24.20
2022,01,01,14,45,19.30
2022,01,01,14,46,22.50
2022,01,01,14,47,24.20
2022,01,01,14,48,45.10
2022,01,01,14,49,24.20
2022,01,01,14,50,19.30
2022,01,01,14,51,24.20
2022,01,01,14,52,19.30
2022,01,01,14,53,35.40
2022,01,01,14,54,29.00
2022,01,01,14,55,37.00
2022,01,01,14,56,37.00
2022,01,01,14,57,25.70
2022,01,01,14,58,37.00
2022,01,01,14,59,30.60
2022,01,01,15,00,30.60
2022,01,01,15,01,22.50
2022,01,01,15,02,11.30
2022,01,01,15,03,16.10
2022,01,01,15,04,16.10
2022,01,01,15,05,29.00
2022,01,01,15,06,20.90
2022,01,01,15,07,25.70
2022,01,01,15,08,17.70
2022,01,01,15,09,20.90
2022,01,01,15,10,19.30
2022,01,01,15,11,22.50
2022,01,01,15,12,16.10
2022,01,01,15,13,32.20
2022,01,01,15,14,20.90
2022,01,01,15,15,24.20
2022,01,01,15,16,25.70
2022,01,01,15,17,22.50
2022,01,01,15,18,27.40
2022,01,01,15,19,22.50
2022,01,01,15,20,30.60
2022,01,01,15,21,35.40
2022,01,01,15,22,30.60
2022,01,01,15,23,33.80
2022,01,01,15,24,30.60
2022,01,01,15,25,38.60
2022,01,01,15,26,38.60
2022,01,01,15,27,35.40
2022,01,01,15,28,38.60
2022,01,01,15,29,35.40
2022,01,01,15,30,32.20
2022,01,01,15,31,37.00
2022,01,01,15,32,30.60
2022,01,01,15,33,27.40
2022,01,01,15,34,27.40
2022,01,01,15,35,25.70
2022,01,01,15,36,33.80
2022,01,01,15,37,24.20
2022,01,01,15,38,35.40
2022,01,01,15,39,19.30
2022,01,01,15,40,19.30
2022,01,01,15,41,14.50
2022,01,01,15,42,17.70
2022,01,01,15,43,24.20
2022,01,01,15,44,25.70
2022,01,01,15,45,32.20
2022,01,01,15,46,20.90
2022,01,01,15,47,30.60
2022,01,01,15,48,32.20
2022,01,01,15,49,33.80
2022,01,01,15,50,22.50
2022,01,01,15,51,19.30
2022,01,01,15,52,20.90
2022,01,01,15,53,27.40
2022,01,01,15,54,14.50
2022,01,01,15,55,43.50
2022,01,01,15,56,40.20
2022,01,01,15,57,27.40
2022,01,01,15,58,30.60
2022,01,01,15,59,19.30
2022,01,01,16,00,27.40
2022,01,01,16,01,33.80
2022,01,01,16,02,32.20
2022,01,01,16,03,25.70
2022,01,01,16,04,33.80
2022,01,01,16,05,40.20
2022,01,01,16,06,33.80
2022,01,01,16,07,40.20
2022,01,01,16,08,35.40
2022,01,01,16,09,32.20
2022,01,01,16,10,32.20
2022,01,01,16,11,20.90
2022,01,01,16,12,37.00
2022,01,01,16,13,30.60
2022,01,01,16,14,41.80
2022,01,01,16,15,40.20
2022,01,01,16,16,12.90
2022,01,01,16,17,25.70
2022,01,01,16,18,45.10
2022,01,01,16,19,35.40
2022,01,01,16,20,33.80
2022,01,01,16,21,32.20
2022,01,01,16,22,32.20
2022,01,01,16,23,35.40
2022,01,01,16,24,46.70
2022,01,01,16,25,43.50
2022,01,01,16,26,30.60
2022,01,01,16,27,37.00
2022,01,01,16,28,35.40
2022,01,01,16,29,30.60
2022,01,01,16,30,33.80
2022,01,01,16,31,37.00
2022,01,01,16,32,35.40
2022,01,01,16,33,33.80
2022,01,01,16,34,40.20
2022,01,01,16,35,32.20
2022,01,01,16,36,27.40
2022,01,01,16,37,48.30
2022,01,01,16,38,43.50
2022,01,01,16,39,38.60
2022,01,01,16,40,41.80
2022,01,01,16,41,29.00
2022,01,01,16,42,24.20
2022,01,01,16,43,33.80
2022,01,01,16,44,29.00
2022,01,01,16,45,37.00
2022,01,01,16,46,48.30
2022,01,01,16,47,22.50
2022,01,01,16,48,57.90
2022,01,01,16,49,22.50
2022,01,01,16,50,33.80
2022,01,01,16,51,48.30
2022,01,01,16,52,43.50
2022,01,01,16,53,45.10
2022,01,01,16,54,43.50
2022,01,01,16,55,38.60
2022,01,01,16,56,54.70
2022,01,01,16,57,40.20
2022,01,01,16,58,53.10
2022,01,01,16,59,32.20
2022,01,01,17,00,48.30
2022,01,01,17,01,43.50
2022,01,01,17,02,29.00
2022,01,01,17,03,33.80
2022,01,01,17,04,29.00
2022,01,01,17,05,41.80
2022,01,01,17,06,29.00
2022,01,01,17,07,24.20
2022,01,01,17,08,38.60
2022,01,01,17,09,33.80
2022,01,01,17,10,25.70
2022,01,01,17,11,25.70
2022,01,01,17,12,49.90
2022,01,01,17,13,22.50
2022,01,01,17,14,27.40
2022,01,01,17,15,37.00
2022,01,01,17,16,27.40
2022,01,01,17,17,40.20
2022,01,01,17,18,33.80
2022,01,01,17,19,33.80
2022,01,01,17,20,24.20
2022,01,01,17,21,41.80
2022,01,01,17,22,38.60
2022,01,01,17,23,40.20
2022,01,01,17,24,29.00
2022,01,01,17,25,29.00
2022,01,01,17,26,37.00
2022,01,01,17,27,32.20
2022,01,01,17,28,45.10
2022,01,01,17,29,38.60
2022,01,01,17,30,46.70
2022,01,01,17,31,33.80
2022,01,01,17,32,33.80
2022,01,01,17,33,29.00
2022,01,01,17,34,33.80
2022,01,01,17,35,32.20
2022,01,01,17,36,30.60
2022,01,01,17,37,25.70
2022,01,01,17,38,22.50
2022,01,01,17,39,33.80
2022,01,01,17,40,45.10
2022,01,01,17,41,20.90
2022,01,01,17,42,49.90
2022,01,01,17,43,32.20
2022,01,01,17,44,22.50
2022,01,01,17,45,22.50
2022,01,01,17,46,40.20
2022,01,01,17,47,30.60
2022,01,01,17,48,33.80
2022,01,01,17,49,30.60
2022,01,01,17,50,27.40
2022,01,01,17,51,27.40
2022,01,01,17,52,32.20
2022,01,01,17,53,40.20
2022,01,01,17,54,24.20
2022,01,01,17,55,25.70
2022,01,01,17,56,38.60
2022,01,01,17,57,24.20
2022,01,01,17,58,32.20
2022,01,01,17,59,33.80
2022,01,01,18,00,16.10
2022,01,01,18,01,35.40
2022,01,01,18,02,32.20
2022,01,01,18,03,40.20
2022,01,01,18,04,40.20
2022,01,01,18,05,27.40
2022,01,01,18,06,33.80
2022,01,01,18,07,32.20
2022,01,01,18,08,49.90
2022,01,01,18,09,45.10
2022,01,01,18,10,41.80
2022,01,01,18,11,25.70
2022,01,01,18,12,35.40
2022,01,01,18,13,24.20
2022,01,01,18,14,43.50
2022,01,01,18,15,37.00
2022,01,01,18,16,51.50
2022,01,01,18,17,37.00
2022,01,01,18,18,24.20
2022,01,01,18,19,37.00
2022,01,01,18,20,35.40
2022,01,01,18,21,32.20
2022,01,01,18,22,30.60
2022,01,01,18,23,49.90
2022,01,01,18,24,74.00
2022,01,01,18,25,30.60
2022,01,01,18,26,40.20
2022,01,01,18,27,35.40
2022,01,01,18,28,27.40
2022,01,01,18,29,41.80
2022,01,01,18,30,24.20
2022,01,01,18,31,43.50
2022,01,01,18,32,59.50
2022,01,01,18,33,48.30
2022,01,01,18,34,41.80
2022,01,01,18,35,33.80
2022,01,01,18,36,29.00
2022,01,01,18,37,27.40
2022,01,01,18,38,20.90
2022,01,01,18,39,29.00
2022,01,01,18,40,43.50
2022,01,01,18,41,41.80
2022,01,01,18,42,38.60
2022,01,01,18,43,30.60
2022,01,01,18,44,35.40
2022,01,01,18,45,54.70
2022,01,01,18,46,29.00
2022,01,01,18,47,45.10
2022,01,01,18,48,53.10
2022,01,01,18,49,38.60
2022,01,01,18,50,51.50
2022,01,01,18,51,48.30
2022,01,01,18,52,46.70
2022,01,01,18,53,40.20
2022,01,01,18,54,32.20
2022,01,01,18,55,30.60
2022,01,01,18,56,41.80
2022,01,01,18,57,41.80
2022,01,01,18,58,27.40
2022,01,01,18,59,25.70
2022,01,01,19,00,53.10
2022,01,01,19,01,41.80
2022,01,01,19,02,32.20
2022,01,01,19,03,30.60
2022,01,01,19,04,32.20
2022,01,01,19,05,33.80
2022,01,01,19,06,25.70
2022,01,01,19,07,30.60
2022,01,01,19,08,29.00
2022,01,01,19,09,37.00
2022,01,01,19,10,45.10
2022,01,01,19,11,27.40
2022,01,01,19,12,29.00
2022,01,01,19,13,46.70
2022,01,01,19,14,41.80
2022,01,01,19,15,19.30
2022,01,01,19,16,20.90
2022,01,01,19,17,35.40
2022,01,01,19,18,37.00
2022,01,01,19,19,37.00
2022,01,01,19,20,41.80
2022,01,01,19,21,41.80
2022,01,01,19,22,41.80
2022,01,01,19,23,49.90
2022,01,01,19,24,40.20
2022,01,01,19,25,41.80
2022,01,01,19,26,45.10
2022,01,01,19,27,33.80
2022,01,01,19,28,48.30
2022,01,01,19,29,35.40
2022,01,01,19,30,30.60
2022,01,01,19,31,43.50
2022,01,01,19,32,38.60
2022,01,01,19,33,41.80
2022,01,01,19,34,64.40
2022,01,01,19,35,57.90
2022,01,01,19,36,43.50
2022,01,01,19,37,45.10
2022,01,01,19,38,43.50
2022,01,01,19,39,32.20
2022,01,01,19,40,45.10
2022,01,01,19,41,33.80
2022,01,01,19,42,25.70
2022,01,01,19,43,46.70
2022,01,01,19,44,32.20
2022,01,01,19,45,32.20
2022,01,01,19,46,43.50
2022,01,01,19,47,43.50
2022,01,01,19,48,37.00
2022,01,01,19,49,48.30
2022,01,01,19,50,40.20
2022,01,01,19,51,41.80
2022,01,01,19,52,32.20
2022,01,01,19,53,33.80
2022,01,01,19,54,38.60
2022,01,01,19,55,32.20
2022,01,01,19,56,40.20
2022,01,01,19,57,35.40
2022,01,01,19,58,43.50
2022,01,01,19,59,41.80
2022,01,01,20,00,45.10
2022,01,01,20,01,45.10
2022,01,01,20,02,30.60
2022,01,01,20,03,38.60
2022,01,01,20,04,48.30
2022,01,01,20,05,38.60
2022,01,01,20,06,46.70
2022,01,01,20,07,35.40
2022,01,01,20,08,40.20
2022,01,01,20,09,24.20
2022,01,01,20,10,57.90
2022,01,01,20,11,49.90
2022,01,01,20,12,46.70
2022,01,01,20,13,54.70
2022,01,01,20,14,32.20
2022,01,01,20,15,40.20
2022,01,01,20,16,24.20
2022,01,01,20,17,30.60
2022,01,01,20,18,30.60
2022,01,01,20,19,43.50
2022,01,01,20,20,33.80
2022,01,01,20,21,30.60
2022,01,01,20,22,29.00
2022,01,01,20,23,30.60
2022,01,01,20,24,41.80
2022,01,01,20,25,24.20
2022,01,01,20,26,37.00
2022,01,01,20,27,32.20
2022,01,01,20,28,25.70
2022,01,01,20,29,29.00
2022,01,01,20,30,32.20
2022,01,01,20,31,24.20
2022,01,01,20,32,32.20
2022,01,01,20,33,43.50
2022,01,01,20,34,32.20
2022,01,01,20,35,24.20
2022,01,01,20,36,24.20
2022,01,01,20,37,37.00
2022,01,01,20,38,25.70
2022,01,01,20,39,25.70
2022,01,01,20,40,30.60
2022,01,01,20,41,35.40
2022,01,01,20,42,25.70
2022,01,01,20,43,30.60
2022,01,01,20,44,30.60
2022,01,01,20,45,25.70
2022,01,01,20,46,20.90
2022,01,01,20,47,38.60
2022,01,01,20,48,27.40
2022,01,01,20,49,37.00
2022,01,01,20,50,25.70
2022,01,01,20,51,33.80
2022,01,01,20,52,33.80
2022,01,01,20,53,27.40
2022,01,01,20,54,43.50
2022,01,01,20,55,37.00
2022,01,01,20,56,35.40
2022,01,01,20,57,41.80
2022,01,01,20,58,43.50
2022,01,01,20,59,27.40
2022,01,01,21,00,29.00
2022,01,01,21,01,30.60
2022,01,01,21,02,45.10
2022,01,01,21,03,32.20
2022,01,01,21,04,32.20